Theta_e
307 308 308 309 310 310 311 311 313 315 316 317 317 316 315 314 313 313 313 313 312 312 311 311 311 311 311 311 310 310 310 310 309 309 309 308 307 307 306 306 306 305 305 304 304 304 304 304 304 304 304 303 302 302 301 301 300 300 299 299 299 299 298 298 298 297 297 296 297
306 307 308 309 310 310 310 310 312 313 315 317 317 316 316 315 314 313 313 313 313 312 312 312 311 311 310 310 310 310 310 309 309 308 309 308 307 307 306 305 305 305 305 304 304 304 304 304 304 304 303 303 302 302 301 301 300 300 299 299 299 299 299 298 298 298 297 297 297
306 307 307 308 308 308 308 309 310 311 313 315 317 316 316 315 314 314 313 313 312 312 312 311 310 310 310 310 310 310 310 309 308 308 308 308 307 307 306 306 305 305 305 305 304 304 304 303 304 304 304 303 302 302 301 300 301 300 300 299 300 300 300 300 299 298 298 298 297
305 306 306 306 307 307 307 308 309 310 311 314 315 315 315 315 314 314 313 312 311 311 311 311 310 310 310 310 310 310 309 310 309 308 308 308 307 307 306 306 305 305 305 304 304 304 304 303 304 304 303 303 301 301 301 301 301 300 300 300 300 300 300 300 300 299 299 299 297
304 305 306 306 306 307 307 308 308 309 310 312 314 315 315 314 314 313 312 311 311 312 311 311 310 310 310 310 309 309 309 309 310 309 308 307 307 307 306 306 305 305 305 304 304 304 304 303 304 304 303 302 302 302 302 301 301 300 300 301 300 300 300 300 300 300 300 299 298
304 305 306 306 306 307 307 308 308 309 310 311 313 314 315 315 314 313 313 312 312 311 311 310 310 310 310 309 309 309 309 309 309 309 308 307 307 307 306 306 305 305 305 304 304 303 303 303 303 303 303 302 302 302 301 301 301 300 300 300 300 300 300 300 300 300 299 299 298
303 304 305 306 306 307 307 308 308 309 309 310 311 313 314 314 314 313 313 313 312 311 311 311 310 310 309 308 308 309 308 309 309 308 308 307 307 307 306 306 305 305 305 304 304 304 303 303 303 303 303 303 302 301 300 301 301 301 300 300 300 300 300 299 300 300 299 298 297
303 303 304 305 306 307 307 307 308 308 309 309 311 312 313 313 313 313 313 313 312 311 311 311 309 309 308 308 308 308 308 308 308 308 308 307 307 306 306 306 305 305 305 304 304 303 303 303 303 303 303 303 302 301 300 300 300 300 300 300 300 300 299 299 299 299 299 297 297
302 303 304 305 306 307 307 308 308 308 308 309 310 311 313 313 313 313 313 313 313 312 311 311 310 309 308 308 308 308 308 308 308 308 308 307 306 306 306 306 305 305 305 305 304 303 303 303 303 303 303 302 302 301 300 300 300 300 299 300 300 299 299 299 299 299 298 297 297
301 302 303 304 305 306 307 307 307 308 308 308 310 312 313 314 314 313 313 314 314 313 311 311 310 309 308 308 308 308 308 308 308 307 307 307 307 306 306 306 305 305 305 305 304 303 303 303 303 302 302 302 302 301 300 300 299 299 299 300 299 298 298 298 298 298 298 298 297
300 301 302 303 304 305 306 307 307 307 308 308 310 312 313 314 315 315 315 315 314 312 311 311 310 310 309 308 308 308 308 308 308 307 307 307 306 306 306 305 305 305 305 305 304 304 303 303 302 302 301 301 301 300 300 299 299 299 299 299 299 298 297 297 298 298 298 298 297
300 301 302 303 304 304 305 306 306 307 307 308 310 311 313 314 315 315 315 314 312 312 311 312 311 310 310 310 309 308 308 307 307 307 307 306 306 306 305 305 305 305 305 305 304 304 304 303 302 301 300 301 301 300 300 299 299 299 298 298 298 297 297 297 297 298 298 298 297
300 301 301 302 303 304 304 305 305 306 307 308 309 311 313 314 315 315 314 313 313 312 312 312 311 311 310 310 309 309 308 307 307 307 307 306 306 306 305 305 305 305 305 305 304 304 304 303 302 301 300 300 300 300 300 299 299 299 298 298 298 297 297 297 298 298 298 298 297
300 300 301 301 302 303 304 304 305 306 306 307 308 310 312 313 314 314 314 314 313 313 313 312 312 312 311 310 310 309 308 308 307 306 306 306 306 306 305 306 305 305 305 305 305 304 303 303 302 301 300 300 300 300 300 299 300 299 299 298 298 298 298 298 298 298 297 297 297
299 300 300 301 302 302 303 304 304 305 305 306 307 308 309 311 313 314 314 313 313 313 313 313 312 312 311 311 310 310 309 308 307 306 306 305 306 306 305 305 305 305 305 305 304 304 303 302 302 301 300 300 300 300 300 300 300 300 299 299 298 298 298 298 298 298 298 297 297
299 299 300 300 301 302 303 303 304 305 305 306 306 307 308 309 311 313 314 313 313 314 313 313 312 312 312 311 311 310 309 308 307 306 306 305 305 305 306 306 305 305 305 305 304 304 303 303 302 301 300 300 300 300 300 300 300 300 299 299 299 298 298 298 298 298 298 298 298
298 299 299 300 300 301 302 303 304 304 305 305 306 306 307 307 309 311 312 313 313 313 313 312 312 312 311 311 311 310 309 308 308 307 306 305 305 306 306 306 306 305 305 305 304 303 303 303 302 301 301 300 300 300 300 300 300 300 299 299 299 298 298 299 299 298 298 298 298
298 298 299 299 299 300 301 302 303 304 305 305 306 306 307 307 307 308 310 311 312 312 312 312 312 312 311 310 310 310 310 309 308 307 307 306 305 305 306 306 306 306 305 305 304 304 303 303 302 301 301 300 300 300 300 300 300 300 300 299 299 299 299 299 299 299 299 298 299
298 298 298 299 299 300 300 301 302 303 304 305 306 306 307 307 307 307 308 309 311 311 311 312 312 311 311 310 310 310 310 309 308 307 307 306 306 306 306 306 306 306 305 305 304 304 303 302 302 301 301 300 300 300 300 300 300 300 300 299 299 299 299 299 299 299 299 299 299
298 298 298 299 299 300 300 301 302 303 304 305 306 306 306 307 307 307 308 308 310 311 311 311 311 311 310 309 309 309 309 310 308 308 307 306 306 306 306 306 306 306 306 305 305 304 303 303 302 301 300 300 300 300 300 300 300 300 300 299 299 298 299 299 299 299 299 299 299
298 298 299 299 299 300 300 300 301 302 304 305 305 306 306 307 307 307 308 309 310 310 311 311 311 310 310 309 308 308 309 310 308 307 307 306 306 306 306 306 306 306 306 306 305 304 303 303 302 301 300 300 300 300 299 300 300 300 299 299 299 299 299 299 299 299 299 299 299
298 298 299 299 299 300 300 301 301 302 303 304 305 305 306 306 307 308 308 309 310 311 311 310 310 310 309 308 308 308 308 309 308 308 307 307 306 306 306 307 306 306 306 305 305 304 303 302 302 301 300 300 300 300 300 300 300 300 299 299 299 299 299 299 299 299 299 299 299
298 299 299 299 300 300 301 301 301 302 302 303 304 305 306 306 306 307 308 309 310 311 311 311 311 310 309 309 308 308 308 308 307 307 307 307 307 307 306 307 306 306 306 306 305 304 303 303 302 301 300 300 300 300 300 300 300 300 299 299 299 299 298 299 299 299 299 299 299
298 299 299 300 300 300 300 300 300 301 302 303 304 305 305 306 306 307 308 309 310 310 311 311 311 311 310 309 308 308 308 308 307 307 307 306 306 307 307 307 306 306 306 306 306 305 304 303 302 301 300 300 300 300 300 300 300 300 300 299 299 299 299 299 299 299 299 299 300
298 298 299 299 299 299 300 300 300 300 301 302 303 304 305 305 306 306 307 308 309 310 310 311 311 311 311 310 309 308 308 308 307 307 306 306 306 306 306 307 306 306 306 307 309 309 308 306 304 302 301 301 301 301 300 300 300 300 300 300 299 299 299 299 299 299 299 299 300
298 298 299 299 299 299 299 299 300 300 301 302 303 304 304 305 305 306 307 307 308 309 310 310 310 311 311 311 309 308 308 308 308 307 306 306 306 306 306 307 306 306 307 309 311 311 311 309 307 305 302 301 301 301 301 301 300 300 300 300 300 300 299 299 299 299 299 299 299
298 298 298 299 299 299 299 299 300 300 300 301 302 303 304 305 306 306 306 307 307 308 309 309 310 310 311 311 309 308 308 307 307 307 307 306 306 306 306 306 306 306 307 310 312 312 312 311 310 307 304 302 301 301 301 301 300 300 300 300 300 300 299 299 299 299 299 300 299
298 298 298 299 299 299 299 299 299 300 300 301 302 303 304 305 305 306 306 307 307 308 308 309 310 310 310 310 309 308 308 307 307 307 307 307 306 306 306 306 306 307 308 311 312 313 313 312 311 310 307 303 302 302 301 301 301 301 300 300 300 300 300 299 300 300 300 299 299
298 298 298 298 299 299 300 299 299 299 300 301 302 303 304 305 305 306 306 307 307 308 308 309 309 309 310 309 309 308 308 307 308 307 307 307 307 306 306 306 306 307 310 312 313 313 313 313 312 311 309 306 303 302 302 302 301 301 301 301 300 300 300 300 300 300 300 300 300
298 299 299 299 299 299 300 300 300 300 300 301 302 303 304 305 305 306 306 306 307 307 308 309 309 309 309 309 308 308 308 308 308 308 308 307 306 306 306 307 307 308 310 313 313 314 314 314 313 312 311 308 304 302 302 302 302 301 301 301 301 300 300 300 300 300 300 300 300
299 299 299 299 299 300 300 300 300 300 301 301 302 303 303 304 305 305 306 306 307 308 309 309 309 308 308 308 308 308 308 309 309 308 308 307 307 307 307 307 307 307 310 312 313 314 314 314 314 313 312 310 306 303 302 302 301 302 301 301 300 300 300 300 300 300 300 300 300
299 299 299 299 299 300 300 301 301 301 301 301 302 302 303 303 304 305 306 306 307 308 308 308 308 307 307 308 308 308 308 308 308 308 308 308 307 307 307 307 307 307 309 313 313 314 314 314 314 313 312 310 307 303 302 302 302 302 301 301 300 300 300 300 300 300 300 300 300
299 299 299 299 300 300 301 301 301 301 301 302 302 302 303 303 304 305 305 306 307 307 307 307 307 307 307 307 307 307 307 307 308 308 309 309 308 307 307 307 307 308 310 312 314 314 314 314 314 314 313 312 307 304 301 301 301 301 301 300 300 300 300 300 300 300 300 300 300
298 299 299 299 300 301 301 301 302 302 302 302 303 303 304 304 304 304 304 305 306 307 307 307 307 307 307 307 307 307 307 308 308 308 308 309 308 307 307 307 307 309 311 313 313 314 314 315 315 314 313 312 307 303 301 301 301 301 300 300 300 300 300 300 300 300 300 300 300
298 298 299 299 300 301 301 302 302 302 303 303 304 304 304 304 304 304 304 305 306 307 307 307 307 307 307 307 307 307 307 307 307 307 308 308 308 308 307 307 307 309 311 313 313 314 315 315 315 315 314 312 307 303 301 300 300 300 299 299 299 299 299 299 299 299 299 299 299
298 298 299 300 300 301 301 301 302 303 303 304 304 304 304 304 304 304 305 306 306 306 306 306 307 307 306 306 307 307 307 307 307 307 307 308 308 307 307 306 307 308 311 313 314 314 315 315 315 315 314 311 307 303 301 300 300 299 299 299 299 299 299 299 299 299 299 299 299
298 298 299 299 299 300 300 300 301 302 303 303 304 304 304 304 304 304 305 306 305 305 306 306 306 306 306 306 306 306 307 307 307 307 307 308 308 307 307 307 306 308 310 313 313 314 315 315 315 315 314 311 306 303 300 300 300 299 299 298 299 298 299 299 299 299 299 298 298
298 298 298 299 299 299 299 299 299 300 301 303 304 304 304 304 303 303 304 305 305 305 305 305 305 305 306 306 306 307 307 307 307 307 307 307 308 307 307 307 306 308 309 312 313 314 314 315 315 315 313 310 305 302 300 300 300 299 299 299 298 298 299 299 299 299 298 298 301
298 298 298 298 297 297 298 298 298 299 300 302 303 304 304 303 303 303 303 304 305 305 305 305 305 305 306 306 307 306 307 307 307 307 307 307 308 308 308 307 307 307 309 311 313 313 314 315 315 315 313 310 304 301 300 300 299 299 298 298 298 298 298 299 299 299 298 299 304
297 297 297 297 297 297 297 297 298 299 300 302 303 303 303 303 303 302 303 303 304 304 305 305 305 306 306 307 307 306 306 306 306 307 307 307 308 309 309 308 307 307 308 310 312 313 314 314 315 315 314 310 303 301 300 300 299 298 298 298 298 298 298 298 298 298 299 298 303
297 297 297 296 296 297 297 297 298 299 301 302 302 302 302 302 302 301 301 302 302 303 304 305 305 306 306 307 307 306 306 305 306 306 307 308 308 310 310 308 307 307 308 309 311 313 313 314 315 315 314 308 303 301 300 300 299 298 297 298 298 298 298 298 298 298 298 298 300
Wind_Speed
13 12 11 11 10 10 10 10 11 11 10 9 8 7 7 7 7 7 7 7 7 7 7 7 8 8 8 10 12 13 14 14 14 15 15 15 14 14 14 13 13 12 12 11 11 11 10 11 10 8 7 7 7 7 7 7 7 8 8 7 6 7 8 9 8 8 8 8 6
13 13 13 13 12 11 10 11 12 12 11 9 8 7 7 7 7 7 7 7 7 7 7 7 7 8 9 11 12 13 13 14 14 15 15 15 15 14 14 13 13 13 13 12 12 11 10 11 10 8 7 7 7 7 8 7 8 8 9 9 7 6 7 8 8 8 8 8 6
13 13 13 13 13 12 11 11 12 14 14 12 9 8 7 6 6 7 7 7 7 7 7 6 7 8 10 11 11 12 12 13 14 14 14 14 14 14 14 13 13 13 13 12 12 11 10 11 10 9 8 7 8 8 8 8 8 8 9 10 7 6 6 7 7 7 6 6 6
13 14 13 14 15 14 13 12 14 16 16 13 10 8 7 6 6 6 6 7 7 7 7 7 8 9 10 10 11 12 12 13 14 14 14 14 14 14 14 13 13 14 13 13 12 12 12 12 10 9 8 9 9 9 9 8 8 8 8 8 7 6 6 6 6 6 5 5 6
14 14 14 13 15 15 14 13 15 16 16 14 11 8 7 6 6 6 6 6 7 8 9 10 9 9 9 10 12 13 13 14 15 14 14 14 14 14 14 14 14 14 13 13 13 13 13 12 10 8 8 8 8 8 9 9 9 9 7 6 6 6 6 6 6 6 5 5 5
14 15 15 14 15 15 14 13 15 16 16 15 13 11 9 7 6 6 7 7 8 9 10 10 10 9 9 11 12 13 13 13 13 13 13 14 13 13 14 14 14 13 13 13 13 13 13 12 9 8 7 7 7 8 9 10 10 9 7 7 6 6 6 7 6 6 6 6 6
15 16 16 16 16 15 14 14 15 15 16 16 16 14 13 11 9 9 9 8 7 8 8 9 9 9 10 11 11 12 12 12 13 13 14 13 13 14 14 14 14 14 13 13 13 13 12 12 10 9 8 7 7 8 9 10 10 9 9 8 7 6 7 7 6 6 7 9 9
15 16 17 17 16 16 15 16 15 15 15 15 17 17 15 14 13 12 11 9 7 7 8 8 9 10 11 11 12 12 13 13 13 13 13 13 14 14 14 14 13 13 14 14 13 13 12 11 10 9 8 8 7 8 9 11 11 10 10 10 8 7 6 6 6 7 8 10 10
14 15 16 17 16 15 15 15 15 16 16 17 19 19 17 15 14 12 10 8 8 7 7 8 10 11 12 13 13 13 13 14 14 14 14 14 14 14 14 13 13 13 13 13 14 14 13 11 10 9 8 8 8 9 10 11 12 12 11 10 8 7 7 6 7 8 9 10 10
14 15 16 16 15 15 14 14 15 15 16 18 19 19 17 14 12 11 10 9 9 7 7 8 10 11 12 13 13 13 13 13 14 14 15 14 14 14 14 13 13 13 13 13 13 13 13 11 10 10 9 9 9 10 11 12 12 12 11 9 8 8 8 7 8 9 9 10 10
14 14 15 15 15 15 15 14 14 14 15 15 17 17 15 11 10 10 10 10 11 10 9 8 10 11 12 13 13 13 13 13 13 14 14 14 14 14 14 13 14 14 14 13 13 12 12 11 11 11 11 10 10 11 12 13 13 13 12 9 9 10 10 9 9 9 10 10 10
13 14 14 15 15 15 14 13 13 13 13 14 15 14 12 10 8 8 9 11 12 12 11 9 9 11 12 12 13 13 13 13 13 13 14 14 14 14 14 14 14 14 14 14 13 12 11 12 12 12 12 12 10 10 11 13 13 13 12 11 10 11 11 11 10 9 9 9 10
13 14 14 15 15 15 14 13 12 12 12 12 12 11 10 9 8 7 7 9 11 11 11 11 10 10 11 11 12 12 12 13 13 13 13 14 14 14 14 14 14 14 14 14 13 12 12 13 14 14 13 13 11 11 12 14 14 13 13 12 12 12 12 12 11 10 9 9 10
13 13 14 14 15 14 14 14 12 11 11 11 10 9 9 8 7 6 6 8 9 11 11 12 10 9 10 11 12 13 13 13 13 13 13 13 14 14 14 14 14 14 14 13 13 14 14 14 14 15 14 14 13 13 13 14 14 14 14 13 13 13 13 12 11 11 11 11 11
13 13 14 14 14 13 13 13 12 11 11 11 10 9 9 8 7 6 6 7 9 10 11 12 11 11 10 11 12 13 14 14 14 13 13 13 14 14 14 14 14 14 14 13 13 14 15 15 15 15 15 15 14 14 13 14 14 14 14 14 14 14 13 12 12 11 11 12 11
13 13 13 14 13 13 13 13 11 11 11 11 11 10 10 8 7 6 6 7 8 8 10 12 13 12 11 11 12 13 14 14 14 14 14 14 14 14 15 15 15 15 14 14 14 14 14 15 15 15 15 15 14 14 14 14 14 14 14 14 14 13 13 13 12 12 12 12 12
14 14 14 14 14 14 14 13 12 12 12 12 12 11 10 9 7 7 6 6 6 8 10 12 13 13 12 11 10 11 13 13 14 14 14 15 15 15 15 15 16 15 15 14 14 14 14 14 14 14 14 14 14 14 14 14 14 14 14 14 13 13 13 13 12 12 12 12 12
14 14 14 14 14 14 15 15 14 14 13 13 13 12 10 9 9 8 8 7 7 8 11 13 13 14 13 12 10 10 11 13 14 14 15 15 15 15 15 15 16 16 15 15 15 15 14 14 14 13 13 13 13 13 13 13 13 14 14 13 13 12 12 12 12 12 11 12 12
14 14 14 14 14 15 15 15 15 15 14 13 12 11 11 11 11 10 10 9 9 9 11 13 14 14 14 14 11 10 11 12 14 14 15 15 15 14 14 15 15 15 15 15 15 15 15 15 14 13 13 12 12 12 12 13 13 13 13 13 12 12 11 11 11 11 11 11 11
14 14 14 15 15 15 15 15 15 15 14 13 12 11 11 11 11 11 11 10 11 11 12 13 14 14 14 14 12 11 11 11 13 14 15 14 14 14 14 14 15 15 15 15 15 15 15 14 14 14 14 13 13 13 12 12 12 12 12 11 11 11 11 11 11 11 11 11 10
14 14 15 15 15 15 15 15 15 15 14 14 13 12 12 12 11 11 10 10 10 12 13 14 14 15 15 14 12 11 10 10 12 13 14 14 14 14 14 14 14 14 14 15 15 15 15 14 14 14 14 14 14 14 13 12 12 12 12 11 10 11 11 11 11 11 11 10 10
15 15 15 15 15 15 15 15 15 15 14 14 14 13 12 12 11 10 9 8 8 10 12 14 14 15 15 14 12 10 9 9 10 12 13 13 14 14 14 14 14 14 14 15 15 15 15 15 14 14 14 14 14 14 14 13 13 12 12 11 11 10 10 10 10 11 10 10 10
15 15 15 15 15 16 16 16 15 15 15 14 14 13 13 12 11 10 9 8 7 8 10 12 13 14 15 14 12 10 9 9 10 11 12 13 13 13 14 13 13 14 14 14 15 15 15 14 14 13 13 13 13 14 14 14 13 13 12 12 12 11 10 10 10 10 10 10 10
15 15 14 14 15 15 16 15 15 15 15 14 14 13 12 12 11 10 9 8 8 8 8 9 11 13 15 15 12 10 9 10 10 11 12 13 13 13 13 13 13 14 14 13 14 15 15 13 13 12 12 12 13 13 13 13 13 13 13 13 12 11 10 10 10 10 10 10 9
16 15 15 15 15 16 16 15 16 16 15 15 14 13 12 12 11 10 9 9 8 8 8 9 10 12 13 15 13 11 9 10 11 12 12 12 12 12 12 12 12 12 12 13 18 20 20 17 14 12 11 11 12 12 12 13 13 13 13 13 13 12 11 10 10 10 10 10 9
16 15 15 15 16 16 16 16 16 16 16 15 14 13 12 11 10 10 9 9 9 9 9 9 9 10 11 13 13 12 10 9 10 11 12 12 12 12 12 12 12 11 12 14 21 24 25 23 19 16 13 11 11 12 12 12 13 13 13 13 13 12 12 11 11 10 10 9 9
16 15 15 15 15 16 16 16 16 16 16 15 14 13 13 12 10 9 9 9 9 9 9 8 8 9 10 11 12 12 11 9 9 11 12 12 13 13 13 12 11 11 12 17 23 26 27 26 24 21 17 12 12 12 12 12 13 13 13 13 13 12 13 12 12 11 10 9 9
16 16 15 16 16 16 16 15 15 15 15 15 14 13 12 11 11 10 9 9 9 9 8 8 7 7 7 8 10 11 11 9 9 10 11 12 13 13 13 13 12 12 15 21 24 26 27 27 26 24 21 15 12 12 12 12 12 12 12 12 12 12 13 12 12 11 10 10 9
17 16 16 16 16 16 16 16 16 15 15 15 14 13 12 11 10 10 10 10 10 9 8 6 5 5 5 7 8 10 10 9 9 9 10 12 12 13 14 14 13 14 18 24 26 27 28 28 27 26 24 20 13 11 10 11 11 11 11 11 11 12 12 12 11 10 10 10 9
17 17 16 16 16 16 16 16 15 15 14 13 11 11 10 10 10 10 11 11 11 9 7 5 5 5 6 8 8 8 9 8 8 9 11 13 13 14 14 15 14 15 19 25 26 27 28 28 28 28 26 24 16 12 10 10 10 11 11 10 11 12 12 12 11 11 10 9 9
17 17 17 16 16 16 16 16 15 14 12 10 10 9 9 9 10 10 11 11 10 9 7 6 6 8 9 9 8 8 8 8 8 9 11 13 14 14 14 15 14 15 19 25 27 28 28 29 29 28 28 26 18 13 11 11 11 11 11 11 11 12 12 11 11 11 11 10 10
17 17 17 17 17 17 17 17 15 13 11 10 9 8 8 8 8 9 10 10 11 10 9 8 8 9 10 10 9 9 9 8 9 9 11 12 14 14 14 15 15 16 19 25 27 28 29 29 29 29 28 27 19 15 12 12 11 11 11 11 12 12 12 11 10 11 11 11 10
18 18 18 18 18 18 18 17 15 12 10 9 8 7 7 8 9 10 12 13 12 11 11 10 9 10 10 10 10 10 9 9 9 10 11 13 13 14 14 14 14 15 19 25 27 28 29 29 29 29 29 28 20 15 13 12 11 10 10 10 11 12 12 12 10 10 11 11 10
19 19 19 19 19 19 18 17 15 13 11 9 8 8 8 9 11 13 15 15 13 11 10 9 9 9 9 9 9 9 9 9 9 9 11 12 13 14 14 13 12 15 20 25 27 28 28 29 29 29 29 28 19 14 12 12 11 10 9 10 10 10 11 11 11 11 11 11 10
19 19 19 19 19 18 18 17 16 14 12 10 10 9 10 11 13 15 16 17 15 12 10 8 8 8 8 8 9 9 9 9 9 9 10 12 13 14 15 14 13 16 21 25 27 28 28 28 28 29 28 26 17 13 11 12 11 10 10 10 10 10 10 10 10 10 10 10 10
20 20 20 19 19 19 18 18 16 15 13 12 11 11 11 12 13 15 16 17 15 12 10 8 7 8 8 8 9 9 10 10 9 10 10 12 13 14 15 15 14 17 22 25 26 27 27 27 28 29 28 22 15 11 10 10 10 10 11 11 11 11 11 10 10 10 10 10 10
19 19 19 19 19 19 19 18 18 17 16 14 13 12 12 12 14 14 14 14 12 11 10 8 8 9 9 10 9 10 10 9 9 9 10 12 13 14 15 15 15 17 21 24 26 26 27 27 28 28 26 19 13 11 10 10 9 9 10 10 10 11 11 10 10 10 10 10 10
19 19 19 19 19 19 19 19 19 19 18 16 14 12 11 11 12 12 12 11 10 9 10 9 10 10 11 10 10 10 10 10 9 9 10 12 13 14 15 15 15 16 18 23 25 26 27 28 28 28 24 16 12 11 10 9 9 9 9 9 9 10 10 9 8 9 9 11 12
19 18 18 18 19 19 20 20 20 20 19 18 15 14 12 10 10 10 10 9 8 8 9 10 11 11 11 11 10 10 11 10 10 10 10 11 13 14 15 15 15 15 17 21 24 26 27 28 29 28 25 16 12 11 10 9 9 9 9 9 9 9 9 8 8 8 9 11 15
18 17 17 18 18 19 20 21 21 20 19 18 16 15 13 11 10 10 10 8 7 7 8 10 12 12 12 11 11 11 11 11 10 10 10 11 13 15 17 15 15 15 17 21 24 27 28 28 29 29 25 15 12 11 10 9 10 10 9 9 9 9 8 8 7 7 8 9 14
16 16 17 18 18 19 20 21 21 20 19 17 17 15 13 11 10 10 9 7 7 7 8 10 12 12 12 11 11 11 11 11 10 10 10 11 13 15 16 15 15 15 16 20 24 26 28 29 29 29 25 14 12 11 10 10 10 10 10 10 9 9 8 8 7 7 7 8 9
Wind_Direction
318 317 317 316 315 314 314 314 310 302 290 272 257 242 228 217 215 213 210 207 208 209 210 209 209 210 210 208 207 209 211 212 212 212 211 210 209 207 205 203 201 199 197 196 193 191 191 192 191 190 190 191 190 189 189 188 186 185 185 185 181 177 174 172 174 173 171 170 170
316 316 316 316 316 316 315 316 315 310 301 282 263 246 232 220 216 212 210 208 209 209 209 209 208 208 209 208 207 209 210 212 212 212 212 211 210 207 205 203 201 198 196 194 191 190 191 191 190 190 190 191 188 189 190 189 184 184 185 186 183 179 176 176 177 174 171 168 166
315 316 317 317 317 317 317 318 318 316 309 294 273 253 238 225 218 213 210 209 208 207 207 208 207 206 207 207 207 208 210 212 212 212 212 212 210 207 205 203 201 199 197 194 192 190 190 190 190 191 190 190 189 190 190 188 184 184 186 187 184 181 180 182 179 175 170 168 166
315 315 316 315 316 316 317 317 320 319 316 305 283 261 244 231 223 216 210 206 205 205 206 206 205 204 204 205 207 208 210 211 211 212 213 213 211 208 206 203 201 199 198 195 193 192 190 188 191 192 192 189 189 190 190 186 184 186 187 187 184 182 183 184 179 176 173 170 169
315 314 314 313 314 315 316 316 319 320 319 313 296 274 252 238 229 219 211 205 206 207 206 204 203 202 202 202 205 207 210 211 212 212 213 213 212 209 206 203 201 199 198 196 194 192 190 188 191 194 193 190 190 191 190 183 183 185 187 186 185 185 184 182 180 179 176 173 173
313 313 312 311 313 314 315 317 318 320 320 317 305 286 263 245 234 224 215 210 209 208 205 202 202 201 200 201 204 206 209 211 212 212 213 213 213 210 207 205 202 200 198 196 195 193 190 188 192 194 193 190 192 193 189 180 182 183 185 186 188 187 184 182 181 179 177 173 173
312 311 311 311 312 314 315 317 318 319 320 319 310 293 271 251 240 229 221 216 211 206 202 200 200 199 199 199 203 206 208 210 211 212 212 213 212 210 208 206 203 201 198 197 195 193 191 189 193 193 192 190 192 192 189 182 182 183 185 187 189 186 184 183 181 178 176 174 173
310 310 310 309 311 312 314 316 317 318 318 318 313 299 280 256 244 235 228 224 217 208 202 199 198 197 197 198 201 205 207 208 210 211 212 212 212 211 209 206 204 202 199 196 194 193 192 192 194 193 191 190 191 191 189 185 182 183 185 187 188 186 184 181 179 177 176 174 173
310 309 309 308 309 310 312 315 315 314 313 313 312 303 289 264 250 242 238 237 229 216 204 198 196 196 197 199 201 204 206 207 209 210 211 211 211 210 209 206 204 203 200 197 195 193 192 193 196 195 192 190 190 189 188 185 183 184 185 186 186 185 184 181 179 178 176 174 173
307 308 308 308 308 308 310 313 314 312 310 309 312 308 299 279 267 261 262 266 263 250 227 205 196 195 197 200 202 204 205 206 208 209 209 210 209 208 207 206 204 202 201 198 195 193 192 194 196 196 193 190 190 188 186 185 184 184 185 186 184 183 182 182 180 178 176 175 175
304 305 306 306 306 307 309 312 312 312 311 309 313 313 310 299 291 284 282 285 284 274 256 227 204 197 197 201 203 204 205 205 206 207 207 208 207 206 205 205 202 201 199 198 195 193 193 195 196 195 193 190 189 187 186 186 185 185 185 185 182 181 182 184 182 180 178 176 175
301 302 303 304 305 306 307 309 310 310 310 310 312 314 314 310 301 292 287 288 288 282 272 254 223 206 200 201 204 205 205 205 205 206 206 206 206 205 205 204 202 200 198 197 194 193 193 196 195 194 192 189 189 188 187 186 185 185 185 184 182 182 183 185 183 181 179 176 174
299 300 301 302 303 304 305 306 307 308 309 310 311 311 310 307 302 298 295 293 290 287 282 273 248 223 207 203 203 204 205 205 205 205 206 206 205 204 203 203 202 200 198 196 194 193 193 195 194 192 191 189 189 189 187 185 186 186 185 184 183 184 185 185 183 181 178 175 175
297 298 299 300 301 302 303 303 304 304 305 306 308 309 308 306 305 304 302 298 294 291 287 282 268 246 222 207 204 203 203 204 204 205 206 206 204 203 202 203 202 200 199 197 195 193 193 194 193 191 190 189 190 189 187 186 186 186 186 184 185 186 187 186 183 179 177 177 178
297 296 297 298 299 299 300 300 300 301 302 303 305 308 310 310 307 302 296 292 292 291 288 285 277 263 242 218 208 203 202 202 202 203 204 205 205 203 202 202 201 200 199 198 196 195 194 193 192 191 190 190 190 188 187 187 187 188 187 186 186 187 187 185 182 180 178 178 179
297 296 296 296 297 297 297 297 297 297 298 299 302 305 308 310 309 303 294 287 288 288 287 283 279 272 258 235 214 205 202 202 202 202 203 205 205 204 203 202 201 199 198 197 197 196 195 194 193 191 190 190 190 188 187 187 188 189 189 189 188 187 186 185 182 181 181 180 179
297 296 295 295 294 294 294 293 293 293 294 295 298 300 303 305 307 304 297 288 285 283 282 280 279 275 267 251 224 209 203 203 203 202 203 204 204 204 203 202 200 198 197 196 196 196 196 195 194 192 191 190 189 189 188 187 188 189 190 189 188 188 187 185 184 182 181 180 181
297 296 295 294 293 292 292 291 291 290 290 290 293 295 297 299 302 303 301 296 288 282 280 278 277 274 269 259 237 217 206 204 204 204 204 204 204 203 203 202 200 198 196 195 195 194 194 194 193 191 190 190 189 189 188 187 188 189 189 189 189 188 188 186 185 183 182 182 182
296 296 295 293 292 290 290 290 289 288 287 286 287 289 292 294 297 299 301 303 298 289 282 277 275 272 268 261 245 226 212 206 206 205 204 203 202 202 202 202 200 198 195 194 194 194 193 192 190 189 188 188 188 188 188 187 188 189 189 188 188 188 188 187 186 185 183 183 181
295 295 294 293 291 289 288 288 287 286 284 283 283 285 287 290 292 294 296 300 301 295 287 278 274 271 268 263 249 232 218 209 207 206 205 203 201 201 201 201 200 198 195 194 194 193 192 191 189 187 186 185 186 186 186 186 187 187 188 188 188 188 188 188 186 185 184 183 180
294 294 293 292 290 289 287 286 286 284 282 280 280 280 283 286 288 288 288 290 294 293 290 284 278 273 269 265 254 238 223 214 208 206 205 203 201 200 200 200 199 197 195 193 193 192 191 190 188 186 185 184 185 185 185 184 185 185 186 187 187 187 187 187 186 185 184 183 180
293 293 292 291 290 288 287 285 285 283 281 279 277 278 279 282 284 284 283 281 283 286 288 288 283 277 271 265 255 242 227 217 210 207 205 203 202 200 199 199 199 197 196 194 193 192 191 190 188 186 185 184 185 184 184 182 183 183 184 185 186 186 186 186 186 185 184 183 181
293 292 292 291 290 288 287 285 284 283 281 278 276 276 276 277 279 280 279 276 273 276 280 285 284 280 274 266 256 243 228 219 213 208 206 204 202 200 199 198 198 197 196 194 192 190 190 189 188 186 185 184 184 184 183 182 181 181 182 183 183 184 185 186 185 184 183 183 182
293 292 291 291 290 289 287 286 285 283 281 277 275 273 272 273 275 276 276 274 270 269 271 276 281 281 278 272 262 246 229 218 214 211 208 205 202 199 197 197 197 198 197 196 193 190 188 188 186 185 184 183 183 183 183 182 180 180 180 181 181 182 183 184 184 183 183 183 182
293 292 291 290 290 289 287 286 284 282 280 277 273 271 269 269 271 273 274 274 272 270 269 270 275 279 279 276 268 255 235 220 215 212 209 206 202 198 196 196 197 198 199 199 196 193 191 188 185 183 182 182 182 182 182 182 181 180 180 180 180 180 181 183 183 184 183 183 183
293 292 291 289 289 288 287 285 283 281 279 277 273 270 267 265 267 269 271 274 275 275 274 272 272 274 275 275 270 261 245 227 219 213 210 207 202 199 196 196 197 198 200 201 198 196 194 191 187 183 180 180 179 180 181 182 182 181 180 180 180 180 180 182 184 185 185 185 184
294 292 291 289 288 287 286 284 283 281 279 277 273 268 265 262 263 265 268 271 275 277 278 276 274 273 273 272 269 262 252 235 224 217 213 209 203 199 196 196 196 197 199 201 199 198 196 193 189 185 181 178 178 179 180 181 181 181 181 181 182 181 182 183 184 185 186 187 186
294 293 291 290 289 287 286 285 283 281 279 275 271 267 263 261 261 262 265 268 272 275 277 277 276 274 272 269 266 262 254 240 228 221 218 214 207 201 197 196 196 197 198 200 199 198 196 195 191 187 182 179 178 178 178 177 179 180 181 182 183 184 184 185 184 184 185 185 186
295 294 292 291 289 288 287 286 284 281 278 275 271 267 264 261 261 261 263 266 267 268 270 273 276 275 270 266 264 262 257 245 232 223 219 217 211 205 200 197 196 197 198 199 199 198 197 195 192 188 184 180 178 178 178 176 177 179 181 183 184 185 186 187 186 185 184 184 185
296 296 294 292 291 290 289 287 285 282 279 275 271 267 264 262 262 263 264 265 264 262 261 262 264 265 264 263 263 262 258 250 237 227 221 218 214 209 203 198 197 197 199 199 199 198 197 196 193 190 186 181 178 177 177 176 176 178 181 183 184 185 186 187 185 184 183 183 183
298 298 297 295 293 292 290 289 286 283 280 275 271 267 265 264 265 266 267 266 264 261 256 250 251 253 256 258 259 259 257 254 243 232 224 219 215 210 205 200 197 198 200 200 200 199 197 196 194 191 187 183 180 178 177 176 177 179 181 182 183 184 184 184 183 182 181 180 180
301 301 300 298 296 294 292 291 289 286 282 276 274 272 271 272 273 274 273 270 266 260 254 246 244 246 249 251 253 253 253 251 245 237 228 222 216 210 205 200 197 198 200 201 201 200 198 197 196 193 190 185 183 181 179 177 178 179 181 181 181 181 182 182 181 181 180 179 179
303 303 301 299 297 296 295 295 294 292 288 284 284 285 288 290 289 285 280 274 266 258 251 244 241 241 243 245 247 249 249 248 245 240 233 226 218 211 205 201 198 199 201 202 202 201 200 198 197 195 192 187 185 183 180 177 177 179 180 180 179 179 179 179 178 178 178 178 178
304 302 301 300 299 298 299 300 301 300 297 294 294 296 298 299 295 289 282 275 266 257 248 242 239 238 239 240 243 245 246 246 244 240 235 228 219 211 205 201 199 200 201 203 203 203 201 199 198 196 193 189 186 182 180 178 177 177 177 176 176 177 177 177 175 175 176 177 177
302 301 300 301 302 303 304 306 305 304 300 296 296 297 298 297 293 287 281 273 265 257 248 241 238 236 236 237 238 241 244 245 244 240 235 229 220 212 206 201 200 199 201 203 204 203 202 200 199 197 195 190 185 180 178 177 176 176 175 172 172 173 174 174 173 173 175 176 177
300 300 301 303 305 307 308 308 307 303 299 294 292 292 293 293 289 284 278 271 263 255 247 242 239 237 235 235 236 238 240 242 242 240 236 230 221 213 206 201 199 199 200 203 204 204 203 201 200 198 196 191 183 176 175 176 175 174 172 170 171 172 172 172 172 173 175 177 178
299 301 303 305 307 308 308 308 307 303 299 294 290 288 287 287 284 281 276 268 259 251 245 242 240 237 235 233 234 235 236 237 238 238 236 231 222 214 207 201 198 198 200 202 203 204 204 203 202 199 195 189 178 171 170 173 172 171 170 170 171 171 171 170 171 173 175 178 180
300 301 303 305 306 307 307 307 305 303 300 296 291 287 284 281 280 278 274 266 255 247 244 243 240 238 235 232 233 234 233 233 233 235 234 232 223 215 207 201 198 197 199 201 203 204 205 205 203 200 195 184 172 166 167 170 169 169 170 171 170 170 170 170 172 175 178 182 185
300 301 302 303 303 303 303 302 301 300 298 296 292 288 283 279 277 276 274 267 255 248 245 245 242 240 237 233 233 233 232 230 230 230 231 230 223 215 207 201 197 196 198 201 203 205 206 206 204 200 194 179 167 163 166 167 167 168 169 169 168 169 170 171 173 177 182 187 190
300 300 300 300 300 299 299 298 297 296 295 294 291 288 284 280 277 276 275 272 262 254 249 248 245 242 238 235 234 233 231 228 225 225 225 226 222 215 208 202 197 195 197 201 203 205 206 207 205 200 192 174 164 162 164 164 165 166 168 169 168 169 171 174 175 178 184 191 194
298 298 298 298 297 296 296 295 294 293 292 291 289 288 286 283 280 278 278 277 271 263 256 252 248 244 240 236 235 234 232 228 222 219 219 220 221 216 210 203 197 195 197 200 203 205 207 207 205 198 188 166 162 161 163 162 164 166 169 170 169 169 171 174 177 181 185 191 196